Lid_Strength_Index
-2 -2 -2 -2 -1 -1 -0 -0 -0 2 1 2 2 1 -0 -0 -0 2 3 1 -0 -2 -1 0 1 2 2 4 3 4 10 12 10 10 9 6 8 6 6 6 6 5 5 4 2
-1 -1 -2 -2 -2 -1 -1 -1 -1 -1 -1 -0 1 1 0 -0 3 5 1 -2 -2 -2 1 2 3 3 5 5 5 7 10 10 7 7 7 6 7 6 7 7 7 6 4 3 2
-1 -1 -1 -1 -1 -2 -1 -1 -1 -1 -1 -1 -1 -1 -0 0 5 7 -1 -2 -2 -2 0 1 2 3 6 5 6 7 10 7 7 5 6 6 7 6 7 8 6 6 5 4 4
-1 -1 -1 -1 -1 -1 -1 -1 -1 -1 -1 -1 -1 -1 -1 1 13 2 -1 -1 -2 -1 1 2 4 6 7 8 6 9 7 6 6 6 6 7 6 7 6 6 4 4 4 4 4
-1 -1 -1 -1 -1 -1 -1 -2 -1 -1 -1 -1 -1 -1 2 6 6 1 -1 -2 -1 0 3 4 5 6 8 7 6 8 7 6 5 6 6 6 7 7 7 5 4 4 4 4 4
-1 -1 -1 -1 -1 -1 -1 -1 -1 -1 -1 -1 -1 -1 4 10 2 1 1 -0 1 1 3 3 4 4 6 7 7 7 7 7 6 6 6 7 7 7 6 4 5 4 5 4 4
-0 -1 -1 -1 -1 -1 -1 -1 -1 -1 -2 -2 -1 1 6 7 2 1 2 1 1 1 3 2 2 5 5 8 5 6 9 8 7 7 8 7 9 9 5 5 6 6 5 4 4
-0 -0 -1 -1 -1 -1 -1 -1 -1 -1 -1 -2 -1 2 8 3 2 2 2 1 0 1 1 1 2 4 6 5 7 9 9 13 8 7 7 8 13 7 6 6 7 7 7 6 4
0 0 -1 -1 -1 -1 -1 -1 -1 -2 -2 -2 2 4 8 2 5 3 2 2 2 1 1 1 2 6 6 10 12 11 14 12 10 8 8 9 12 7 6 7 8 7 7 7 6
1 2 1 -0 -1 -1 -1 -1 -1 -1 -1 -0 2 6 6 7 5 4 2 2 3 3 4 5 6 9 9 11 16 14 13 12 12 9 8 10 10 8 7 7 7 7 7 7 6
2 2 2 2 -0 -1 -1 1 4 6 3 7 6 7 6 4 3 5 3 3 3 5 10 7 11 13 11 9 9 10 11 12 10 8 10 10 10 9 8 8 9 8 7 6 5
1 1 1 2 2 -1 -0 4 4 3 8 5 4 5 4 4 7 5 3 6 7 10 8 10 13 9 8 8 9 10 12 12 10 9 10 11 12 10 9 9 8 8 8 7 7
0 0 0 1 1 2 2 3 -0 1 8 7 5 5 5 4 7 6 4 5 8 10 10 12 10 7 8 9 11 11 12 12 12 10 10 11 13 11 10 9 8 7 7 7 7
0 -0 -0 0 3 2 3 0 -0 1 12 11 8 6 5 5 8 4 3 5 8 11 9 10 8 9 9 10 10 13 9 10 11 13 16 11 19 13 11 11 9 8 7 7 6
-0 0 0 -0 3 4 2 -0 -0 4 20 10 8 3 4 7 7 7 3 5 9 9 9 11 10 10 11 10 8 11 8 10 11 13 14 14 17 15 12 12 11 10 8 6 6
-1 -1 -1 1 2 3 2 1 3 14 20 13 8 9 9 8 8 7 6 4 5 8 8 9 7 8 9 8 8 8 10 10 11 13 18 14 15 17 14 13 12 9 9 8 9
-1 -1 -1 -0 5 1 2 6 14 18 11 13 12 10 10 10 10 9 10 11 12 15 14 12 11 9 8 10 9 10 13 19 20 20 20 13 15 15 12 11 11 10 10 8 7
-1 -1 -0 0 -0 1 4 10 17 13 13 10 10 10 13 10 10 10 11 13 9 10 13 16 17 11 8 10 12 12 12 18 22 21 19 13 18 15 10 9 9 9 8 7 7
-1 1 1 1 0 3 8 17 15 13 11 12 11 14 13 11 11 11 12 12 10 10 14 15 14 9 8 8 9 12 15 10 16 18 19 16 15 12 10 10 10 9 8 9 7
2 3 3 0 0 5 11 14 13 11 9 10 15 13 15 14 13 12 12 11 11 9 9 11 16 11 9 8 8 11 9 15 15 23 22 19 18 17 14 12 10 10 9 7 7
3 7 3 0 1 7 14 13 12 9 11 11 12 13 13 14 12 13 13 11 9 9 9 10 12 14 11 12 13 12 13 12 12 15 19 20 19 13 12 11 11 9 8 8 8
6 11 3 1 9 9 12 11 9 10 9 9 9 11 12 12 12 13 12 10 8 8 11 10 12 16 14 10 8 9 11 12 16 17 15 16 17 12 11 10 10 10 8 9 9
9 9 3 3 13 12 10 11 11 10 10 10 11 9 9 12 13 12 11 8 8 8 10 9 13 17 16 13 10 12 10 10 11 12 16 18 17 11 10 10 9 9 9 8 9
8 12 8 7 8 10 11 11 12 9 10 10 10 9 10 11 10 12 11 9 8 8 7 7 12 14 17 15 12 14 12 10 11 16 15 14 14 11 10 10 10 9 8 9 9
9 11 9 12 10 10 10 10 12 12 10 9 12 10 11 13 12 12 10 9 9 7 8 9 15 12 12 12 11 12 13 12 13 12 15 13 12 12 10 10 10 9 8 8 9
9 10 8 9 8 10 10 11 11 11 10 12 12 10 9 12 11 12 10 10 11 9 9 9 15 13 17 12 12 14 12 11 12 12 12 11 12 9 8 9 10 9 8 8 8
6 5 7 8 9 10 11 10 10 10 9 8 9 11 10 9 7 7 7 7 9 9 10 11 14 16 16 14 14 19 14 12 11 10 11 14 10 8 8 8 9 8 8 8 8